Regional Weather Roundup
Issued by NWS

Home | Current Version | Previous Version | Graphics & Text | Print | Product List | Glossary On
Versions: 1 2 3 4 5 6 7 8 9 10 11 12 13 14 15 16 17 18 19 20 21 22 23 24 25 26 27 28 29 30 31 32 33 34 35 36 37 38 39 40 41 42 43 44 45 46 47 48 49 50
000
ASUS43 KLOT 011803
RWRIL

ILLINOIS REGIONAL WEATHER ROUNDUP
NATIONAL WEATHER SERVICE CHICAGO/ROMEOVILLE IL
100 PM CDT SUN MAY 01 2016

NOTE: "FAIR" INDICATES FEW OR NO CLOUDS BELOW 12,000 FEET WITH NO
SIGNIFICANT WEATHER AND/OR OBSTRUCTIONS TO VISIBILITY.

* THESE STATIONS ARE NOT UNDER NWS QUALITY CONTROL. THEY ALSO MAY NOT
  REPORT WEATHER SUCH AS PRECIPITATION OR FOG.

ILZ001-002-007-009-015-016-024-011900-
NORTHWEST ILLINOIS

CITY           SKY/WX    TMP DP  RH WIND       PRES   REMARKS
MOLINE         NOT AVBL
STERLING*      CLOUDY    52  46  82 NE10      30.00S
$$

ILZ003-004-008-010-011-017-018-011900-
NORTH CENTRAL ILLINOIS

CITY           SKY/WX    TMP DP  RH WIND       PRES   REMARKS
ROCKFORD       CLOUDY    50  45  83 NE13      30.02F
6HR MIN TEMP:  46; 6HR MAX TEMP:  50;

FREEPORT*      CLOUDY    47  45  91 NE15      30.03F
ROCHELLE*      CLOUDY    49  46  87 NE16      30.00S
DE KALB*       CLOUDY    48  46  91 NE15      30.00F
$$

ILZ005-006-012>014-019>023-011900-
NORTHEAST ILLINOIS

CITY           SKY/WX    TMP DP  RH WIND       PRES   REMARKS
CHICAGO-OHARE  CLOUDY    47  44  90 NE14      29.99F
6HR MIN TEMP:  42; 6HR MAX TEMP:  47;

CHICAGO-MIDWAY CLOUDY    48  44  86 NE10      29.99S
6HR MIN TEMP:  44; 6HR MAX TEMP:  48;

AURORA         CLOUDY    50  46  86 NE12      30.00S
6HR MIN TEMP:  46; 6HR MAX TEMP:  50;

LANSING*       CLOUDY    48  46  91 NE5       29.99S FOG
WAUKEGAN       CLOUDY    45  43  93 N14G21    30.01S
6HR MIN TEMP:  42; 6HR MAX TEMP:  46; 6HR PCP: TRACE;

DUPAGE AIRPORT CLOUDY    47  44  90 NE14      29.99S
6HR MIN TEMP:  44; 6HR MAX TEMP:  48;

WHEELING       CLOUDY    47  43  86 NE13G18   30.01F
6HR MIN TEMP:  43; 6HR MAX TEMP:  47;

MORRIS*        CLOUDY    51  47  87 E7        29.98S
NORTHERLY ISL    N/A     44  43  96 N16         N/A
NORTHERLY ISL    N/A     44  43  96 N16         N/A
$$

LMZ740>746-011900-
SOUTHERN LAKE MICHIGAN

STATION/POSITION SKY/WX   TEMP    WIND        PRES    VSBY  WAVE
                          AIR SEA DIR/SP/G                  HT/PER
                          (F)     (DEG/KT/KT) (MB)    (MI)  (FT/S)
SOUTHERN BUOY              42 40   40/ 10/ 12 1016.5          3/ 5
HARRISON CRIB              44      20/ 16/ 18   N/A
BURNHAM HARBOR             45      10/ 10/ 14   N/A
CALUMET HARBOR             44      10/ 12/ 16 1015.2F
BURNS HARBOR               45      20/ 13/ 14 1015.9F
MICHIGAN CITY              44     350/ 14/ 15   N/A
ST. JOSEPH                 47 48                N/A           2/ 4
$$

ILZ025>027-034>036-040-047-049-050-058-095>099-011900-
WEST-CENTRAL ILLINOIS

CITY           SKY/WX    TMP DP  RH WIND       PRES   REMARKS
QUINCY         CLOUDY    54  51  90 N6        29.96F FOG
MACOMB*        CLOUDY    55  52  90 E6        29.99R
PITTSFIELD*    CLOUDY    56  54  94 CALM      29.97S
$$

ILZ028>032-037-038-041>044-048-051>054-059>061-011900-
CENTRAL ILLINOIS

CITY           SKY/WX    TMP DP  RH WIND       PRES   REMARKS
BLOOMINGTON    CLOUDY    55  55 100 E9        29.97S FOG
DECATUR        CLOUDY    63  57  81 E6        29.95S
PEORIA         CLOUDY    54  50  86 E8        29.97R
6HR MIN TEMP:  48; 6HR MAX TEMP:  55;

LINCOLN*       CLOUDY    58  55  89 E7        29.95S FOG
SPRINGFIELD    CLOUDY    63  56  78 CALM      29.94S
6HR MIN TEMP:  53; 6HR MAX TEMP:  64;

TAYLORVILLE    NOT AVBL
$$

ILZ033-039-045-046-055>057-062-063-011900-
EAST-CENTRAL ILLINOIS

CITY           SKY/WX    TMP DP  RH WIND       PRES   REMARKS
CHAMPAIGN      CLOUDY    60  56  86 E8        29.95F
MATTOON        CLOUDY    65  58  78 NE3       29.94S
$$

ILZ079-100>102-011900-
SOUTHWEST ILLINOIS

CITY           SKY/WX    TMP DP  RH WIND       PRES   REMARKS
BELLEVILLE     PTSUNNY   69  65  85 VRB1      29.93R
CAHOKIA*       CLOUDY    68  58  70 SW5       29.94S
SPARTA*        CLOUDY    70  61  71 NW5       29.95R
$$

ILZ064>066-069>071-074>076-080>082-084>086-088>090-092>094-011900-
SOUTH-CENTRAL ILLINOIS

CITY           SKY/WX    TMP DP  RH WIND       PRES   REMARKS
CARBONDALE     CLOUDY    74  63  68 VRB6      29.93F
6HR MIN TEMP:  56; 6HR MAX TEMP:  74;

CAIRO*         MOSUNNY   75  66  74 SW9       29.93S
EFFINGHAM*     CLOUDY    68  62  80 N6        29.96S
MARION         PTSUNNY   75  63  64 W9        29.94F
MT. VERNON     PTSUNNY   73  61  64 SW6       29.94S
SALEM*         PTSUNNY   73  61  66 SW6       29.93S
$$

ILZ067-068-072-073-078-083-087-091-011900-
SOUTHEAST ILLINOIS

CITY           SKY/WX    TMP DP  RH WIND       PRES   REMARKS
LAWRENCEVILLE  SUNNY     75  62  64 SE3       29.93S
FLORA*         CLOUDY    76  64  65 SW9       29.92F
HARRISBURG*    PTSUNNY   74  65  71 SW10      29.93F
ROBINSON*      CLOUDY    72  61  68 CALM      29.94S
$$

ABBREVIATIONS USED IN REMARKS
   TC - TEMPERATURE IN CELSIUS
  WCI - WIND CHILL INDEX
   HX - HEAT INDEX
  VSB - VISIBILITY
$$





USA.gov is the U.S. government's official web portal to all federal, state and local government web resources and services.